| time (UTC) | temp F | wind direction | speed knots | gust knots | rain 1hr in | rain 24hr in | rain mn in | humidity % | barometer mb |
| 20260509124653 | 77 | 260 | 0.0 | 0.0 | 0.00 | 0.52 | 0.01 | 52 | 1019.0 |
| 20260509123647 | 76 | 257 | 0.9 | 2.6 | 0.00 | 0.52 | 0.01 | 53 | 1019.0 |
| 20260509123146 | 76 | 253 | 0.9 | 3.5 | 0.01 | 0.52 | 0.01 | 51 | 1019.1 |
| 20260509122645 | 76 | 193 | 0.0 | 3.5 | 0.01 | 0.52 | 0.01 | 51 | 1019.1 |
| 20260509122146 | 76 | 244 | 0.0 | 2.6 | 0.01 | 0.52 | 0.01 | 51 | 1019.1 |
| 20260509121644 | 76 | 226 | 0.0 | 1.7 | 0.01 | 0.52 | 0.01 | 52 | 1019.2 |
| 20260509121145 | 76 | 205 | 0.0 | 3.5 | 0.01 | 0.52 | 0.01 | 53 | 1019.2 |
| 20260509120642 | 76 | 266 | 0.0 | 3.5 | 0.01 | 0.52 | 0.01 | 53 | 1019.3 |
| 20260509115641 | 75 | 96 | 0.0 | 0.9 | 0.01 | 0.52 | 0.01 | 53 | 1019.4 |
| 20260509115137 | 75 | 95 | 0.0 | 3.5 | 0.01 | 0.52 | 0.01 | 52 | 1019.6 |
| 20260509114636 | 74 | 94 | 0.9 | 3.5 | 0.01 | 0.52 | 0.01 | 53 | 1019.6 |
| 20260509114134 | 74 | 105 | 0.9 | 3.5 | 0.01 | 0.52 | 0.01 | 51 | 1019.6 |
| 20260509113633 | 74 | 113 | 0.0 | 2.6 | 0.01 | 0.52 | 0.01 | 55 | 1019.7 |
| 20260509113134 | 74 | 103 | 0.0 | 0.0 | 0.00 | 0.51 | 0.00 | 52 | 1019.6 |
| 20260509112633 | 74 | 26 | 0.0 | 0.0 | 0.00 | 0.51 | 0.00 | 53 | 1019.7 |
| 20260509111623 | 72 | 127 | 0.0 | 2.6 | 0.00 | 0.51 | 0.00 | 60 | 1019.8 |
| 20260509111124 | 71 | 127 | 0.0 | 2.6 | 0.00 | 0.51 | 0.00 | 60 | 1019.8 |
| 20260509110623 | 71 | 134 | 0.0 | 2.6 | 0.00 | 0.51 | 0.00 | 67 | 1019.8 |
| 20260509110119 | 71 | 134 | 0.0 | 2.6 | 0.00 | 0.51 | 0.00 | 66 | 1019.8 |
| 20260509105115 | 70 | 110 | 0.0 | 1.7 | 0.00 | 0.51 | 0.00 | 72 | 1019.8 |
| 20260509104615 | 69 | 117 | 0.0 | 3.5 | 0.00 | 0.51 | 0.00 | 73 | 1019.8 |
| 20260509104112 | 69 | 117 | 0.0 | 3.5 | 0.00 | 0.51 | 0.00 | 74 | 1019.9 |
| 20260509103611 | 68 | 108 | 0.0 | 2.6 | 0.00 | 0.51 | 0.00 | 76 | 1019.9 |
| 20260509103112 | 68 | 111 | 0.0 | 2.6 | 0.00 | 0.51 | 0.00 | 80 | 1020.0 |
| 20260509102610 | 67 | 114 | 0.0 | 2.6 | 0.00 | 0.51 | 0.00 | 85 | 1020.0 |
| 20260509102108 | 66 | 115 | 0.0 | 2.6 | 0.00 | 0.51 | 0.00 | 87 | 1020.0 |
| 20260509101607 | 65 | 124 | 0.0 | 2.6 | 0.00 | 0.51 | 0.00 | 89 | 1020.0 |
| 20260509101107 | 65 | 148 | 0.0 | 2.6 | 0.00 | 0.51 | 0.00 | 92 | 1020.3 |
| 20260509100105 | 63 | 96 | 0.0 | 1.7 | 0.00 | 0.51 | 0.00 | 94 | 1020.4 |
| 20260509095606 | 63 | 96 | 0.0 | 2.6 | 0.00 | 0.51 | 0.00 | 94 | 1020.4 |
| 20260509095107 | 62 | 88 | 0.0 | 3.5 | 0.00 | 0.51 | 0.00 | 94 | 1020.3 |
| 20260509094603 | 62 | 88 | 0.0 | 3.5 | 0.00 | 0.51 | 0.00 | 95 | 1020.3 |
| 20260509094103 | 62 | 110 | 0.0 | 4.3 | 0.00 | 0.51 | 0.00 | 96 | 1020.5 |
| 20260509093558 | 61 | 128 | 0.0 | 4.3 | 0.00 | 0.51 | 0.00 | 96 | 1020.5 |
| 20260509093055 | 61 | 108 | 0.0 | 0.0 | 0.00 | 0.51 | 0.00 | 96 | 1020.5 |
| 20260509092546 | 60 | 108 | 0.0 | 2.6 | 0.00 | 0.51 | 0.00 | 96 | 1020.7 |
| 20260509092040 | 60 | 109 | 0.0 | 2.6 | 0.00 | 0.51 | 0.00 | 96 | 1020.7 |
| 20260509091533 | 60 | 111 | 0.0 | 1.7 | 0.00 | 0.51 | 0.00 | 96 | 1020.8 |
| 20260509091029 | 60 | 111 | 0.0 | 1.7 | 0.00 | 0.51 | 0.00 | 96 | 1020.8 |
| 20260509090523 | 59 | 96 | 0.0 | 1.7 | 0.00 | 0.51 | 0.00 | 97 | 1020.9 |
| 20260509085511 | 58 | 96 | 0.0 | 0.0 | 0.00 | 0.51 | 0.00 | 96 | 1021.0 |
| 20260509085016 | 58 | 96 | 0.0 | 0.0 | 0.00 | 0.51 | 0.00 | 96 | 1021.0 |
| 20260509083952 | 58 | 96 | 0.0 | 1.7 | 0.00 | 0.51 | 0.00 | 96 | 1020.8 |
| 20260509083450 | 58 | 96 | 0.0 | 0.0 | 0.00 | 0.51 | 0.00 | 96 | 1020.9 |
| 20260509082951 | 58 | 96 | 0.0 | 1.7 | 0.00 | 0.51 | 0.00 | 96 | 1020.8 |
| 20260509081947 | 58 | 96 | 0.0 | 4.3 | 0.00 | 0.51 | 0.00 | 96 | 1020.7 |
| 20260509081447 | 58 | 124 | 0.0 | 4.3 | 0.00 | 0.51 | 0.00 | 96 | 1020.9 |
| 20260509080950 | 58 | 97 | 0.0 | 1.7 | 0.00 | 0.51 | 0.00 | 96 | 1020.9 |
| 20260509080445 | 57 | 97 | 0.0 | 0.9 | 0.00 | 0.51 | 0.00 | 96 | 1021.0 |
| 20260509074444 | 57 | 96 | 0.9 | 3.5 | 0.00 | 0.51 | 0.00 | 96 | 1021.0 |
| 20260509073940 | 57 | 90 | 0.0 | 2.6 | 0.00 | 0.51 | 0.00 | 96 | 1021.0 |
| 20260509073443 | 57 | 105 | 0.0 | 1.7 | 0.00 | 0.51 | 0.00 | 96 | 1021.1 |
| 20260509072940 | 57 | 101 | 0.0 | 1.7 | 0.00 | 0.51 | 0.00 | 96 | 1021.1 |
| 20260509072438 | 57 | 103 | 0.0 | 2.6 | 0.00 | 0.51 | 0.00 | 96 | 1020.9 |
| 20260509071935 | 57 | 106 | 0.0 | 2.6 | 0.00 | 0.51 | 0.00 | 96 | 1021.0 |
| 20260509071435 | 57 | 105 | 0.0 | 2.6 | 0.00 | 0.51 | 0.00 | 96 | 1021.0 |
| 20260509070935 | 56 | 105 | 0.9 | 3.5 | 0.00 | 0.51 | 0.00 | 96 | 1021.0 |
| 20260509070435 | 56 | 110 | 1.7 | 3.5 | 0.00 | 0.51 | 0.00 | 96 | 1021.0 |
| 20260509065933 | 56 | 89 | 1.7 | 3.5 | 0.00 | 0.51 | 0.00 | 96 | 1021.1 |
| 20260509065436 | 56 | 103 | 0.9 | 3.5 | 0.00 | 0.51 | 0.00 | 96 | 1021.2 |
| 20260509064933 | 56 | 88 | 0.0 | 3.5 | 0.00 | 0.51 | 0.00 | 96 | 1021.1 |
| 20260509063433 | 56 | 118 | 0.0 | 0.0 | 0.00 | 0.51 | 0.00 | 96 | 1021.2 |
| 20260509062933 | 56 | 118 | 0.0 | 0.0 | 0.00 | 0.51 | 0.00 | 96 | 1021.3 |
| 20260509061433 | 56 | 146 | 0.0 | 0.9 | 0.00 | 0.51 | 0.00 | 96 | 1021.2 |
| 20260509060435 | 55 | 147 | 0.0 | 0.9 | 0.00 | 0.51 | 0.00 | 96 | 1021.3 |
| 20260509055931 | 55 | 147 | 0.0 | 0.9 | 0.00 | 0.51 | 0.00 | 95 | 1021.2 |
| 20260509055429 | 0 | 0.0 | 0.0 | 0.00 | 0.51 | 0.00 | 1021.2 | ||
| 20260509054928 | 0 | 0.0 | 0.0 | 0.00 | 0.51 | 0.00 | 1021.1 | ||
| 20260509053927 | 0 | 0.0 | 0.0 | 0.00 | 0.51 | 0.00 | 1021.0 | ||
| 20260509053426 | 0 | 0.0 | 0.0 | 0.00 | 0.51 | 0.00 | 1021.0 | ||
| 20260509052925 | 0 | 0.0 | 0.0 | 0.00 | 0.51 | 0.00 | 1021.1 | ||
| 20260509052413 | 0 | 0.0 | 0.0 | 0.00 | 0.51 | 0.00 | 1021.1 | ||
| 20260509051828 | 0 | 0.0 | 0.0 | 0.00 | 0.51 | 0.00 | 1021.0 | ||
| 20260509051325 | 0 | 0.0 | 0.0 | 0.00 | 0.51 | 0.00 | 1020.9 | ||
| 20260509050731 | 0 | 0.0 | 0.0 | 0.00 | 0.51 | 0.00 | 1020.9 | ||
| 20260509050211 | 0 | 0.0 | 0.0 | 0.00 | 0.51 | 0.00 | 1020.9 | ||
| 20260509045628 | 0 | 0.0 | 0.0 | 0.00 | 0.51 | 0.00 | 1020.9 | ||
| 20260509045127 | 0 | 0.0 | 0.0 | 0.00 | 0.51 | 0.00 | 1020.9 | ||
| 20260509044031 | 0 | 0.0 | 0.0 | 0.00 | 0.51 | 0.00 | 1020.6 | ||
| 20260509043522 | 0 | 0.0 | 0.0 | 0.00 | 0.51 | 0.00 | 1020.6 | ||
| 20260509042925 | 0 | 0.0 | 0.0 | 0.00 | 0.51 | 0.00 | 1020.6 | ||
| 20260509041833 | 0 | 0.0 | 0.0 | 0.00 | 0.51 | 0.00 | 1020.5 | ||
| 20260509041329 | 0 | 0.0 | 0.0 | 0.00 | 0.51 | 0.00 | 1020.5 | ||
| 20260509040830 | 0 | 0.0 | 0.0 | 0.00 | 0.51 | 0.00 | 1020.5 | ||
| 20260509040327 | 0 | 0.0 | 0.0 | 0.00 | 0.51 | 0.00 | 1020.6 | ||
| 20260509035734 | 0 | 0.0 | 0.0 | 0.00 | 0.51 | 0.00 | 1020.2 | ||
| 20260509034724 | 0 | 0.0 | 0.0 | 0.00 | 0.51 | 0.00 | 1020.2 | ||
| 20260509034130 | 0 | 0.0 | 0.0 | 0.00 | 0.51 | 0.00 | 1020.3 | ||
| 20260509033626 | 0 | 0.0 | 0.0 | 0.00 | 0.51 | 0.00 | 1020.0 | ||
| 20260509033036 | 0 | 0.0 | 0.0 | 0.00 | 0.51 | 0.00 | 1020.2 | ||
| 20260509032531 | 0 | 0.0 | 0.0 | 0.00 | 0.51 | 0.00 | 1020.2 | ||
| 20260509032025 | 0 | 0.0 | 0.0 | 0.00 | 0.51 | 0.00 | 1020.0 | ||
| 20260509030927 | 0 | 0.0 | 0.0 | 0.00 | 0.51 | 0.00 | 1020.0 | ||
| 20260509030427 | 0 | 0.0 | 0.0 | 0.00 | 0.51 | 0.00 | 1020.0 | ||
| 20260509025925 | 0 | 0.0 | 0.0 | 0.00 | 0.51 | 0.00 | 1020.0 | ||
| 20260509025423 | 0 | 0.0 | 0.0 | 0.00 | 0.51 | 0.00 | 1020.0 | ||
| 20260509024922 | 0 | 0.0 | 0.0 | 0.00 | 0.51 | 0.00 | 1020.0 | ||
| 20260509024333 | 0 | 0.0 | 0.0 | 0.00 | 0.51 | 0.00 | 1019.9 | ||
| 20260509023827 | 0 | 0.0 | 0.0 | 0.00 | 0.51 | 0.00 | 1019.9 | ||
| 20260509023317 | 0 | 0.0 | 0.0 | 0.00 | 0.51 | 0.00 | 1020.0 | ||
| 20260509022723 | 0 | 0.0 | 0.0 | 0.00 | 0.51 | 0.00 | 1019.9 | ||
| 20260509022129 | 0 | 0.0 | 0.0 | 0.00 | 0.51 | 0.00 | 1019.8 | ||
| 20260509021027 | 0 | 0.0 | 0.0 | 0.00 | 0.51 | 0.00 | 1020.0 | ||
| 20260509020526 | 0 | 0.0 | 0.0 | 0.00 | 0.51 | 0.00 | 1019.8 | ||
| 20260509015934 | 0 | 0.0 | 0.0 | 0.00 | 0.51 | 0.00 | 1020.0 | ||
| 20260509015432 | 0 | 0.0 | 0.0 | 0.00 | 0.51 | 0.00 | 1019.8 | ||
| 20260509014837 | 0 | 0.0 | 0.0 | 0.00 | 0.51 | 0.00 | 1019.8 | ||
| 20260509013725 | 0 | 0.0 | 0.0 | 0.00 | 0.51 | 0.00 | 1019.7 | ||
| 20260509013222 | 0 | 0.0 | 0.0 | 0.00 | 0.51 | 0.00 | 1019.7 | ||
| 20260509012636 | 0 | 0.0 | 0.0 | 0.00 | 0.51 | 0.00 | 1019.5 | ||
| 20260509012134 | 0 | 0.0 | 0.0 | 0.00 | 0.51 | 0.00 | 1019.5 | ||
| 20260509011630 | 0 | 0.0 | 0.0 | 0.00 | 0.51 | 0.00 | 1019.6 | ||
| 20260509011127 | 0 | 0.0 | 0.0 | 0.00 | 0.51 | 0.00 | 1019.4 | ||
| 20260509010627 | 0 | 0.0 | 0.0 | 0.00 | 0.51 | 0.00 | 1019.3 | ||
| 20260509010029 | 0 | 0.0 | 0.0 | 0.00 | 0.51 | 0.00 | 1019.5 | ||
| 20260509005020 | 0 | 0.0 | 0.0 | 0.00 | 0.51 | 0.00 | 1019.5 | ||
| 20260509003837 | 0 | 0.0 | 0.0 | 0.00 | 0.51 | 0.00 | 1019.3 | ||
| 20260509003334 | 0 | 0.0 | 0.0 | 0.00 | 0.51 | 0.00 | 1019.3 | ||
| 20260509002830 | 0 | 0.0 | 0.0 | 0.00 | 0.51 | 0.00 | 1019.3 | ||
| 20260509002328 | 0 | 0.0 | 0.0 | 0.00 | 0.51 | 0.00 | 1019.4 | ||
| 20260509001826 | 0 | 0.0 | 0.0 | 0.00 | 0.51 | 0.00 | 1019.3 | ||
| 20260509001321 | 0 | 0.0 | 0.0 | 0.00 | 0.51 | 0.00 | 1019.3 | ||
| 20260509000729 | 0 | 0.0 | 0.0 | 0.00 | 0.51 | 0.00 | 1019.3 | ||
| 20260509000226 | 0 | 0.0 | 0.0 | 0.00 | 0.51 | 0.00 | 1019.4 | ||
| 20260508235126 | 0 | 0.0 | 0.0 | 0.00 | 0.51 | 0.00 | 1019.3 | ||
| 20260508234535 | 0 | 0.0 | 0.0 | 0.00 | 0.51 | 0.00 | 1019.4 | ||
| 20260508234029 | 0 | 0.0 | 0.0 | 0.00 | 0.51 | 0.00 | 1019.5 | ||
| 20260508233526 | 0 | 0.0 | 0.0 | 0.00 | 0.51 | 0.00 | 1019.5 | ||
| 20260508232934 | 0 | 0.0 | 0.0 | 0.00 | 0.51 | 0.00 | 1019.5 | ||
| 20260508231329 | 0 | 0.0 | 0.0 | 0.00 | 0.51 | 0.00 | 1019.5 | ||
| 20260508230818 | 0 | 0.0 | 0.0 | 0.00 | 0.51 | 0.00 | 1019.4 | ||
| 20260508230224 | 0 | 0.0 | 0.0 | 0.00 | 0.51 | 0.00 | 1019.4 | ||
| 20260508225636 | 0 | 0.0 | 0.0 | 0.00 | 0.51 | 0.00 | 1019.5 | ||
| 20260508225132 | 0 | 0.0 | 0.0 | 0.00 | 0.51 | 0.00 | 1019.6 | ||
| 20260508224628 | 0 | 0.0 | 0.0 | 0.00 | 0.51 | 0.00 | 1019.4 | ||
| 20260508224126 | 0 | 0.0 | 0.0 | 0.00 | 0.51 | 0.00 | 1019.5 | ||
| 20260508223625 | 0 | 0.0 | 0.0 | 0.00 | 0.51 | 0.00 | 1019.4 | ||
| 20260508223034 | 0 | 0.0 | 0.0 | 0.00 | 0.51 | 0.00 | 1019.5 | ||
| 20260508222530 | 0 | 0.0 | 0.0 | 0.00 | 0.51 | 0.00 | 1019.5 | ||
| 20260508221435 | 0 | 0.0 | 0.0 | 0.00 | 0.51 | 0.00 | 1019.5 | ||
| 20260508220936 | 0 | 0.0 | 0.0 | 0.00 | 0.51 | 0.00 | 1019.5 | ||
| 20260508220436 | 0 | 0.0 | 0.0 | 0.00 | 0.51 | 0.00 | 1019.5 | ||
| 20260508215924 | 0 | 0.0 | 0.0 | 0.00 | 0.51 | 0.51 | 1019.5 | ||
| 20260508215420 | 0 | 0.0 | 0.0 | 0.00 | 0.51 | 0.51 | 1019.5 | ||
| 20260508214830 | 0 | 0.0 | 0.0 | 0.00 | 0.51 | 0.51 | 1019.5 | ||
| 20260508212726 | 0 | 0.0 | 0.0 | 0.00 | 0.51 | 0.51 | 1019.4 | ||
| 20260508212130 | 0 | 0.0 | 0.0 | 0.00 | 0.51 | 0.51 | 1019.4 | ||
| 20260508211631 | 0 | 0.0 | 0.0 | 0.00 | 0.51 | 0.51 | 1019.5 | ||
| 20260508211133 | 0 | 0.0 | 0.0 | 0.00 | 0.51 | 0.51 | 1019.5 | ||
| 20260508210625 | 0 | 0.0 | 0.0 | 0.00 | 0.51 | 0.51 | 1019.4 | ||
| 20260508205527 | 0 | 0.0 | 0.0 | 0.00 | 0.51 | 0.51 | 1019.5 | ||
| 20260508205027 | 0 | 0.0 | 0.0 | 0.00 | 0.51 | 0.51 | 1019.4 | ||
| 20260508204432 | 0 | 0.0 | 0.0 | 0.00 | 0.51 | 0.51 | 1019.4 | ||
| 20260508203929 | 0 | 0.0 | 0.0 | 0.00 | 0.51 | 0.51 | 1019.4 | ||
| 20260508203430 | 0 | 0.0 | 0.0 | 0.00 | 0.51 | 0.51 | 1019.3 | ||
| 20260508202840 | 0 | 0.0 | 0.0 | 0.00 | 0.51 | 0.51 | 1019.4 | ||
| 20260508202339 | 0 | 0.0 | 0.0 | 0.00 | 0.51 | 0.51 | 1019.4 | ||
| 20260508201827 | 0 | 0.0 | 0.0 | 0.00 | 0.51 | 0.51 | 1019.4 | ||
| 20260508201322 | 0 | 0.0 | 0.0 | 0.00 | 0.51 | 0.51 | 1019.4 | ||
| 20260508200729 | 0 | 0.0 | 0.0 | 0.00 | 0.51 | 0.51 | 1019.4 | ||
| 20260508195128 | 0 | 0.0 | 0.0 | 0.00 | 0.51 | 0.51 | 1019.2 | ||
| 20260508194531 | 0 | 0.0 | 0.0 | 0.00 | 0.51 | 0.51 | 1019.1 | ||
| 20260508194031 | 0 | 0.0 | 0.0 | 0.00 | 0.51 | 0.51 | 1019.1 | ||
| 20260508193437 | 0 | 0.0 | 0.0 | 0.00 | 0.51 | 0.51 | 1019.0 | ||
| 20260508192925 | 0 | 0.0 | 0.0 | 0.00 | 0.51 | 0.51 | 1018.8 | ||
| 20260508192422 | 0 | 0.0 | 0.0 | 0.00 | 0.51 | 0.51 | 1018.8 | ||
| 20260508191827 | 0 | 0.0 | 0.0 | 0.00 | 0.51 | 0.51 | 1018.7 | ||
| 20260508185628 | 0 | 0.0 | 0.0 | 0.00 | 0.51 | 0.51 | 1018.5 | ||
| 20260508185129 | 0 | 0.0 | 0.0 | 0.00 | 0.51 | 0.51 | 1018.4 | ||
| 20260508184032 | 0 | 0.0 | 0.0 | 0.00 | 0.51 | 0.51 | 1018.3 | ||
| 20260508183525 | 0 | 0.0 | 0.0 | 0.00 | 0.51 | 0.51 | 1018.2 | ||
| 20260508182934 | 0 | 0.0 | 0.0 | 0.00 | 0.51 | 0.51 | 1018.2 | ||
| 20260508181836 | 0 | 0.0 | 0.0 | 0.00 | 0.51 | 0.51 | 1017.9 | ||
| 20260508181332 | 0 | 0.0 | 0.0 | 0.00 | 0.51 | 0.51 | 1017.9 | ||
| 20260508180731 | 0 | 0.0 | 0.0 | 0.00 | 0.51 | 0.51 | 1017.9 | ||
| 20260508180232 | 0 | 0.0 | 0.0 | 0.00 | 0.51 | 0.51 | 1018.0 | ||
| 20260508175730 | 0 | 0.0 | 0.0 | 0.01 | 0.51 | 0.51 | 1017.8 | ||
| 20260508175139 | 0 | 0.0 | 0.0 | 0.02 | 0.51 | 0.51 | 1017.8 | ||
| 20260508174628 | 0 | 0.0 | 0.0 | 0.02 | 0.51 | 0.51 | 1017.8 | ||
| 20260508173532 | 59 | 334 | 0.0 | 0.0 | 0.03 | 0.51 | 0.51 | 92 | 1017.9 |
| 20260508173021 | 59 | 334 | 0.0 | 0.0 | 0.04 | 0.51 | 0.51 | 92 | 1017.8 |
| 20260508172459 | 59 | 334 | 0.0 | 0.0 | 0.05 | 0.51 | 0.51 | 92 | 1017.8 |
| 20260508171957 | 59 | 335 | 0.0 | 0.0 | 0.06 | 0.51 | 0.51 | 92 | 1017.8 |
| 20260508171456 | 59 | 335 | 0.0 | 0.0 | 0.06 | 0.51 | 0.51 | 92 | 1017.8 |
| 20260508170956 | 59 | 335 | 0.0 | 0.0 | 0.07 | 0.51 | 0.51 | 92 | 1017.8 |
| 20260508165953 | 60 | 271 | 0.0 | 0.0 | 0.08 | 0.50 | 0.50 | 92 | 1017.6 |
| 20260508165452 | 59 | 271 | 0.0 | 2.6 | 0.09 | 0.50 | 0.50 | 92 | 1017.6 |
| 20260508164950 | 59 | 278 | 0.0 | 2.6 | 0.09 | 0.50 | 0.50 | 92 | 1017.6 |
| 20260508164450 | 59 | 264 | 0.0 | 0.0 | 0.09 | 0.49 | 0.49 | 92 | 1017.6 |
| 20260508163448 | 59 | 225 | 0.0 | 0.0 | 0.10 | 0.48 | 0.48 | 91 | 1017.7 |
| 20260508162951 | 59 | 224 | 0.0 | 0.0 | 0.11 | 0.47 | 0.47 | 91 | 1017.7 |
| 20260508162446 | 59 | 114 | 0.0 | 0.0 | 0.13 | 0.46 | 0.46 | 91 | 1017.7 |
| 20260508161947 | 59 | 114 | 0.0 | 0.0 | 0.14 | 0.46 | 0.46 | 91 | 1017.8 |
| 20260508161446 | 59 | 114 | 0.0 | 0.0 | 0.17 | 0.45 | 0.45 | 91 | 1017.8 |
| 20260508160948 | 59 | 114 | 0.0 | 0.0 | 0.19 | 0.44 | 0.44 | 91 | 1017.8 |
| 20260508160443 | 59 | 114 | 0.0 | 0.0 | 0.20 | 0.43 | 0.43 | 91 | 1017.8 |
| 20260508155442 | 59 | 114 | 0.0 | 0.0 | 0.24 | 0.42 | 0.42 | 91 | 1017.6 |
| 20260508154456 | 60 | 114 | 0.0 | 0.0 | 0.27 | 0.39 | 0.40 | 90 | 1017.5 |
| 20260508153940 | 60 | 114 | 0.0 | 0.0 | 0.28 | 0.39 | 0.39 | 90 | 1017.4 |
| 20260508153440 | 60 | 114 | 0.0 | 0.0 | 0.29 | 0.38 | 0.39 | 90 | 1017.5 |
| 20260508152942 | 60 | 114 | 0.0 | 0.0 | 0.30 | 0.36 | 0.37 | 90 | 1017.5 |
| 20260508152441 | 60 | 114 | 0.0 | 0.0 | 0.29 | 0.34 | 0.35 | 90 | 1017.4 |
| 20260508151952 | 60 | 114 | 0.0 | 0.0 | 0.28 | 0.31 | 0.31 | 89 | 1017.4 |
| 20260508151453 | 60 | 114 | 0.0 | 0.0 | 0.27 | 0.28 | 0.28 | 89 | 1017.4 |
| 20260508150940 | 60 | 114 | 0.0 | 0.0 | 0.24 | 0.25 | 0.25 | 90 | 1017.4 |
| 20260508150440 | 60 | 118 | 0.0 | 0.0 | 0.23 | 0.23 | 0.23 | 89 | 1017.3 |
| 20260508145939 | 59 | 118 | 0.0 | 0.0 | 0.20 | 0.20 | 0.20 | 89 | 1017.1 |
| 20260508145440 | 60 | 119 | 0.0 | 0.0 | 0.17 | 0.17 | 0.18 | 88 | 1017.1 |
| 20260508144941 | 60 | 119 | 0.0 | 0.0 | 0.15 | 0.15 | 0.16 | 87 | 1017.2 |
| 20260508144441 | 60 | 118 | 0.0 | 1.7 | 0.13 | 0.13 | 0.13 | 87 | 1017.3 |
| 20260508143438 | 60 | 92 | 2.6 | 8.7 | 0.08 | 0.08 | 0.09 | 84 | 1017.2 |
| 20260508142936 | 61 | 90 | 1.7 | 8.7 | 0.06 | 0.06 | 0.07 | 83 | 1017.0 |
| 20260508142436 | 62 | 104 | 0.9 | 6.1 | 0.05 | 0.05 | 0.05 | 81 | 1016.9 |
| 20260508141451 | 64 | 159 | 1.7 | 9.6 | 0.02 | 0.02 | 0.02 | 78 | 1016.6 |
| 20260508140936 | 66 | 79 | 2.6 | 9.6 | 0.01 | 0.01 | 0.01 | 75 | 1016.8 |
| 20260508140436 | 68 | 172 | 1.7 | 8.7 | 0.00 | 0.00 | 0.00 | 69 | 1016.5 |
| 20260508135938 | 69 | 149 | 0.9 | 8.7 | 0.00 | 0.00 | 0.00 | 65 | 1016.3 |
| 20260508135437 | 70 | 104 | 0.0 | 4.3 | 0.00 | 0.00 | 0.00 | 65 | 1016.1 |
| 20260508134935 | 70 | 323 | 0.9 | 4.3 | 0.00 | 0.00 | 0.00 | 65 | 1015.7 |
| 20260508134434 | 70 | 278 | 0.9 | 5.2 | 0.00 | 0.00 | 0.00 | 64 | 1015.6 |
| 20260508133936 | 70 | 359 | 1.7 | 5.2 | 0.00 | 0.00 | 0.00 | 64 | 1015.6 |
| 20260508133432 | 70 | 278 | 1.7 | 6.1 | 0.00 | 0.00 | 0.00 | 63 | 1015.5 |
| 20260508132432 | 70 | 284 | 1.7 | 6.1 | 0.00 | 0.00 | 0.00 | 61 | 1015.2 |
| 20260508130932 | 71 | 271 | 0.9 | 8.7 | 0.00 | 0.00 | 0.00 | 60 | 1015.3 |
| 20260508130434 | 70 | 288 | 1.7 | 8.7 | 0.00 | 0.00 | 0.00 | 60 | 1015.3 |
| 20260508125932 | 70 | 269 | 0.9 | 5.2 | 0.00 | 0.00 | 0.00 | 58 | 1015.3 |
| 20260508125430 | 71 | 351 | 0.9 | 3.5 | 0.00 | 0.00 | 0.00 | 57 | 1015.3 |